Skip Page Navigation
NASA JPL Caltech
NASA Logo - Jet Propulsion Laboratory + View the NASA Portal
+ Near-Earth Object (NEO) Program
Search JPL
JPL Home Earth Solar System Stars & Galaxies Technology
JPL Solar System Dynamics
BODIES ORBITS EPHEMERIDES TOOLS PHYSICAL DATA DISCOVERY FAQ SITE MAP
JPL Small-Body Database Browser
Search: [ help ]  
20000 Varuna (2000 WR106)
Classification: TransNeptunian Object          SPK-ID: 2020000
Ephemeris | Orbit Diagram | Orbital Elements | Physical Parameters | Discovery Circumstances ]

[ show orbit diagram ]
Orbital Elements at Epoch 2456400.5 (2013-Apr-18.0) TDB
Reference: JPL 25 (heliocentric ecliptic J2000)
 Element Value Uncertainty (1-sigma)   Units 
e .05343009324608484 1.2346e-05  
a 43.18776703397108 0.0020002 AU
q 40.88024061425581 0.0013959 AU
i 17.13930989416288 0.00013374 deg
node 97.25723564020059 8.5215e-05 deg
peri 273.3098885476107 0.037717 deg
M 98.85446057914899 0.039933 deg
tp 2427934.049258842617
(1935-May-11.54925884)
9.5235 JED
period 103666.7663429465
283.82
7.2018
0.01972
d
yr
n .003472665471295414 2.4125e-07 deg/d
Q 45.49529345368634 0.0021071 AU
  Orbit Determination Parameters
   # obs. used (total)      284  
   data-arc span      20797 days (56.94 yr)  
   first obs. used      1954-11-24  
   last obs. used      2011-11-02  
   planetary ephem.      DE405  
   SB-pert. ephem.      SB405-CPV-2  
   condition code      2  
   fit RMS      .3903  
   data source      ORB  
   producer      Otto Matic  
   solution date      2012-Dec-03 13:57:54  

Additional Information
 Earth MOID = 39.9251 AU 
 T_jup = 5.619 
[ show covariance matrix ]

Ephemeris | Orbit Diagram | Orbital Elements | Physical Parameters | Discovery Circumstances ]

Physical Parameter Table
Parameter Symbol Value Units Sigma Reference Notes
absolute magnitude H 3.7 mag n/a PDS3 (MPO 7698)  
diameter diameter 900 km 140 Earth, Moon, and Planets, v. 89, Issue 1, p. 117-134 (2002)  
rotation period rot_per 6.3436 h n/a Asteroid Lightcurve DataBase (Rev. 2013-May-01) Published Reference List:
[Farnham, T.L. (2001) IAUC 7583.]
[Jewitt, D.C.; Sheppard, S.S. (2002) Astron. J. 123, 2110-2120.]
[Lellouch, E.; Moreno, R.; Ortiz, J.L.; Paubert, G.; et al. (2002) Astron. Astrophys. 391, 1133-1139.]
[Sheppard, S.S.; Jewitt, D.C. (2002) Astron. J. 124, 1757-1775; Proc. ACM 2002, ESA SP 500, 21-24 (2002ESASP.500...21S); Sheppard, S.S. (2001) IAUC 7619 (2001IAUC.7619....3S).]
[Ortiz, J.L.; Gutierrez, P.J.; Casanova, V.; Sota, A. (2003) Astron. Astrophys. 407, 1149-1155.]
[Hicks, M.D.; Simonelli, D.P.; Buratti, B.J. (2005) Icarus 176, 492-498.]
[Rabinowitz, D.L.; Schaefer, B.E.; Tourtellotte, S.W. (2007) Astron. J. 133, 26-43.]
[Behrend, R. (2008) Observatoire de Geneve web site, http://obswww.unige.ch/~behrend/page_cou.html]
[Thirouin, A.; Ortiz, J.L.; Duffard, R.; Santos-Sanz, P.; et al. (2010) Astron. Astrophys. 522, A93.]
geometric albedo albedo 0.07   0.025 Earth, Moon, and Planets, v. 89, Issue 1, p. 117-134 (2002)  

20000 Varuna           Discovered 2000 Nov. 28 by Spacewatch at Kitt Peak.
Varuna is one of the oldest of the vedic deities, the maker and upholder of heaven and earth. As such he is king of gods and men and the universe, and he has unlimited knowledge. The name was suggested by M. Sarabhai.
NOTE: some special characters may not display properly (any characters within {} are an attempt to place the proper accent above a character)
Reference: 20010309/MPCPages.arcLast Updated: 2009-05-11
Ephemeris | Orbit Diagram | Orbital Elements | Physical Parameters | Discovery Circumstances ]
ABOUT SSD CREDITS/AWARDS PRIVACY/COPYRIGHT GLOSSARY LINKS
FirstGov 2013-May-22 18:01 UT
(server date/time)  
NASA Home Page
Site Manager:   Donald K. Yeomans
Webmaster  Alan B. Chamberlin